North Bennington, VT

11:33 PM EST on February 12, 2016 (GMT -0500)
Morse State

Weather History for KDDH - May, 2013

Change the Weather History Date:

Saturday, May 18, 2013

  Actual Average Record
Temperature  
Mean Temperature 55 °F 56 °F  
Max Temperature 72 °F 68 °F 81 °F (2015)
Min Temperature 38 °F 44 °F 32 °F (2014)
Degree Days  
Heating Degree Days 10 10  
Month to date heating degree days 168 214  
Since 1 July heating degree days 6561 7037  
Cooling Degree Days 0 0  
Month to date cooling degree days 0 0  
Year to date cooling degree days 0 3  
Growing Degree Days 4 (Base 50)    
Moisture  
Dew Point 39 °F    
Average Humidity 61    
Maximum Humidity 92    
Minimum Humidity 29    
Precipitation  
Precipitation 0.00 in 0.12 in 0.88 in (2002)
Month to date precipitation 0.56 1.90  
Year to date precipitation 7.87 13.31  
Sea Level Pressure  
Sea Level Pressure 30.26 in    
Wind  
Wind Speed 3 mph (West)    
Max Wind Speed 10 mph    
Max Gust Speed 13 mph    
Visibility 10 miles    
Events      
T = Trace of Precipitation, MM = Missing Value Source: NWS Daily Summary

Daily Weather History Graph

Daily Weather History Graph

Search for Another Location

Airport or City:

Trip Planner

Search our weather history database for the weather conditions in past years. The results will help you decide how hot, cold, wet, or windy it might be!

Date:

Astronomy

May. 18, 2013 Rise Set
Actual Time 5:26 AM EDT 8:12 PM EDT
Civil Twilight 4:54 AM EDT 8:45 PM EDT
Nautical Twilight 4:12 AM EDT 9:27 PM EDT
Astronomical Twilight 3:24 AM EDT 10:15 PM EDT
Moon 1:03 PM EDT (5/18) 1:28 AM EDT (5/18)
Length of Visible Light 15h 51m
Length of Day
14h 45m
First Quarter, 55% of the Moon is Illuminated
May 18
First Quarter
May 25
Full
May 31
Last Quarter
Jun 8
New
Jun 16
First Quarter

Hourly Weather History & Observations

Time (EDT) Temp. Dew Point Humidity Pressure Visibility Wind Dir Wind Speed Gust Speed Precip Events Conditions
12:54 AM 46.9 °F 39.9 °F 77% 30.23 in 10.0 mi Calm Calm - N/A   Overcast
1:54 AM 44.1 °F 39.0 °F 82% 30.24 in 10.0 mi Calm Calm - N/A   Mostly Cloudy
2:54 AM 41.0 °F 37.9 °F 89% 30.24 in 10.0 mi Calm Calm - N/A   Mostly Cloudy
3:54 AM 37.9 °F 35.1 °F 89% 30.25 in 10.0 mi Calm Calm - N/A   Clear
4:54 AM 39.0 °F 35.1 °F 86% 30.26 in 10.0 mi Calm Calm - N/A   Scattered Clouds
5:54 AM 37.9 °F 35.1 °F 89% 30.27 in 10.0 mi Calm Calm - N/A   Scattered Clouds
6:54 AM 45.0 °F 39.9 °F 82% 30.29 in 10.0 mi Calm Calm - N/A   Mostly Cloudy
7:54 AM 52.0 °F 41.0 °F 66% 30.30 in 10.0 mi Calm Calm - N/A   Clear
8:54 AM 59.0 °F 41.0 °F 51% 30.32 in 10.0 mi Calm Calm - N/A   Clear
9:54 AM 64.0 °F 37.9 °F 38% 30.31 in 10.0 mi Calm Calm - N/A   Mostly Cloudy
10:54 AM 66.9 °F 37.0 °F 33% 30.30 in 10.0 mi North 4.6 mph - N/A   Mostly Cloudy
11:54 AM 68.0 °F 37.9 °F 33% 30.28 in 10.0 mi Variable 4.6 mph - N/A   Clear
12:54 PM 69.1 °F 37.9 °F 32% 30.27 in 10.0 mi NNW 3.5 mph - N/A   Scattered Clouds
1:54 PM 69.1 °F 39.0 °F 33% 30.25 in 10.0 mi Variable 5.8 mph - N/A   Partly Cloudy
3:54 PM 71.1 °F 37.9 °F 30% 30.23 in 10.0 mi Variable 5.8 mph - N/A   Clear
4:54 PM 70.0 °F 37.0 °F 30% 30.22 in 10.0 mi WNW 3.5 mph - N/A   Unknown
6:54 PM 66.0 °F 42.1 °F 42% 30.23 in 10.0 mi West 4.6 mph - N/A   Clear
7:54 PM 64.0 °F 44.1 °F 48% 30.22 in 10.0 mi SW 3.5 mph - N/A   Clear
8:54 PM 60.1 °F 43.0 °F 53% 30.24 in 10.0 mi SW 5.8 mph - N/A   Clear
10:54 PM 52.0 °F 43.0 °F 71% 30.26 in 10.0 mi Calm Calm - N/A   Clear